TimePST,TemperatureF,Dew PointF,Humidity,Sea Level PressureIn,VisibilityMPH,Wind Direction,Wind SpeedMPH,Gust SpeedMPH,PrecipitationIn,Events,Conditions,WindDirDegrees,DateUTC
12:56 AM,27.0,23.0,85,29.92,10.0,SSE,3.5,-,N/A,,Clear,160,2011-11-14 08:56:00
1:56 AM,25.0,21.9,88,29.94,10.0,SSE,3.5,-,N/A,,Clear,160,2011-11-14 09:56:00
2:56 AM,26.1,21.9,84,29.94,10.0,SSE,4.6,-,N/A,,Clear,160,2011-11-14 10:56:00
3:56 AM,25.0,21.9,88,29.94,10.0,South,5.8,-,N/A,,Clear,170,2011-11-14 11:56:00
4:56 AM,25.0,21.9,88,29.97,10.0,Calm,Calm,-,N/A,,Clear,0,2011-11-14 12:56:00
5:56 AM,23.0,19.9,88,29.99,10.0,SE,3.5,-,N/A,,Clear,140,2011-11-14 13:56:00
6:56 AM,23.0,21.0,92,29.99,10.0,Calm,Calm,-,N/A,,Clear,0,2011-11-14 14:56:00
7:56 AM,37.9,28.9,70,29.98,10.0,SSW,9.2,-,N/A,,Clear,210,2011-11-14 15:56:00
8:56 AM,43.0,30.0,60,29.99,10.0,West,11.5,16.1,N/A,,Clear,280,2011-11-14 16:56:00
9:56 AM,43.0,28.0,56,30.01,10.0,West,9.2,-,N/A,,Clear,260,2011-11-14 17:56:00
10:56 AM,46.0,27.0,47,30.01,10.0,SW,5.8,-,N/A,,Clear,230,2011-11-14 18:56:00
11:56 AM,51.1,27.0,39,29.98,10.0,WNW,20.7,28.8,N/A,,Clear,300,2011-11-14 19:56:00
12:56 PM,52.0,28.9,41,29.97,10.0,NW,20.7,35.7,N/A,,Partly Cloudy,310,2011-11-14 20:56:00
1:56 PM,48.9,28.0,44,29.99,10.0,WNW,24.2,35.7,N/A,,Overcast,300,2011-11-14 21:56:00
2:56 PM,46.9,30.0,52,30.00,10.0,WNW,15.0,-,N/A,,Overcast,300,2011-11-14 22:56:00
3:56 PM,46.0,28.9,51,30.03,10.0,West,16.1,-,N/A,,Overcast,280,2011-11-14 23:56:00
4:56 PM,44.1,30.0,58,30.03,10.0,North,3.5,-,N/A,,Overcast,360,2011-11-15 00:56:00
5:56 PM,42.1,30.9,65,30.05,10.0,NW,9.2,-,N/A,,Overcast,310,2011-11-15 01:56:00
6:56 PM,42.1,30.0,62,30.06,10.0,WNW,13.8,-,N/A,,Overcast,290,2011-11-15 02:56:00
7:56 PM,39.9,30.9,70,30.04,10.0,West,4.6,-,N/A,,Scattered Clouds,260,2011-11-15 03:56:00
8:56 PM,39.9,30.0,68,30.03,10.0,WNW,15.0,23.0,N/A,,Partly Cloudy,290,2011-11-15 04:56:00
9:56 PM,37.9,30.0,73,30.06,10.0,West,10.4,-,N/A,,Scattered Clouds,270,2011-11-15 05:56:00
10:56 PM,37.9,30.9,76,30.06,10.0,West,3.5,-,N/A,,Clear,280,2011-11-15 06:56:00
11:56 PM,37.0,30.0,76,30.07,10.0,Calm,Calm,-,N/A,,Overcast,0,2011-11-15 07:56:00